[[{"header":{"parameterUnit":"m.s-1","parameterCategory":2,"la1":30.2991,"la2":30.254,"lo1":-89.0895,"lo2":-89.0444,"dy":0.0017,"dx":0.0017,"nx":28,"ny":28,"refTime":"2025-01-10T09:00:00:Z","depth":"0","parameterNumber":2,"parameterNumberName":"U-component_of_CURRENTS"},"data":[0,0,0,0,0,0,0,0,0,0,0,0,0,0,0,0,0,0,0,0,0,0,0,0,0,0,0,0,0,0,0,0,0,0,0,0,0,0,0,0,0,0,0,0,0,0,0,0,0,0,0,0,0,0,0,0,0,0,-0.2668,-0.2668,0,-0.2629,-0.2628,-0.2628,-0.2549,-0.2548,-0.2547,-0.2546,-0.2496,-0.2496,-0.2496,0,0,0,0,0,0,0,0,0,0,0,0,0,-0.2474,-0.2479,-0.2668,-0.2668,-0.2668,-0.2629,-0.2628,-0.2628,-0.255,-0.2548,-0.2547,-0.2545,-0.2496,-0.2496,-0.2496,0,0,0,0,0,0,0,0,0,0,0,0,0,-0.2507,-0.2481,-0.2668,-0.2626,-0.2622,-0.2629,-0.2628,-0.2627,-0.255,-0.2548,-0.2546,-0.2544,-0.2496,-0.2496,-0.2496,-0.2535,0,0,-0.2496,-0.2496,0,0,0,0,0,0,0,0,-0.2506,-0.2514,-0.2632,-0.2629,-0.2625,-0.2594,-0.2542,-0.2597,-0.2551,-0.2575,-0.2546,-0.2543,-0.2531,-0.2528,-0.2522,-0.2532,-0.253,-0.2496,-0.2496,-0.2496,-0.2496,0,0,0,0,0,0,0,-0.2504,-0.2514,-0.265,-0.2632,-0.2628,-0.254,-0.2544,-0.2551,-0.2562,-0.2572,-0.2567,-0.2568,-0.2528,-0.2522,-0.252,-0.253,-0.2496,-0.2496,-0.2496,-0.2496,-0.2552,-0.2554,0,0,0,0,0,0,-0.2528,-0.2514,-0.2651,-0.2649,-0.2562,-0.2546,-0.2551,-0.2604,-0.2562,-0.2555,-0.2569,-0.2564,-0.2523,-0.252,-0.2518,-0.254,-0.2496,-0.2495,-0.2495,-0.2551,-0.2553,-0.2554,0,0,0,0,0,0,-0.2525,-0.2543,-0.2653,-0.2578,-0.2586,-0.2554,-0.2613,-0.2604,-0.2591,-0.2561,-0.2552,-0.2564,-0.2522,-0.2518,-0.2521,-0.2539,-0.2495,-0.2495,-0.2549,-0.2551,-0.2554,-0.2599,0,0,0,0,0,0,-0.2521,-0.2543,-0.2593,-0.2583,-0.2592,-0.2654,-0.2615,-0.2605,-0.2596,-0.2588,-0.2554,-0.2547,-0.252,-0.2522,-0.2521,-0.2538,-0.2495,-0.2547,-0.255,-0.2553,-0.2595,-0.2603,-0.2609,0,0,0,0,0,-0.2515,-0.2589,-0.2597,-0.2613,-0.2663,-0.2655,-0.2651,-0.2615,-0.2598,-0.2595,-0.2576,-0.2548,-0.254,-0.2523,-0.2522,-0.2539,-0.2545,-0.2549,-0.2553,-0.2592,-0.2601,-0.2609,0,0,0,0,0,0,-0.2539,-0.2589,-0.2596,-0.2687,-0.2671,-0.2642,-0.2651,-0.2625,-0.2608,-0.2605,-0.2568,-0.2561,-0.2573,-0.2558,-0.254,-0.2567,-0.2539,-0.2543,-0.257,-0.2578,-0.2585,-0.2577,-0.2495,0,0,0,0,0,-0.2573,-0.2635,-0.2645,-0.2711,-0.2715,-0.2685,-0.268,-0.2654,-0.2636,-0.2625,-0.26,-0.2588,-0.2591,-0.2584,-0.2583,-0.2599,-0.2574,-0.2611,-0.2618,-0.2623,-0.2619,-0.2617,-0.2622,-0.2566,-0.2566,-0.2566,0,0,-0.2599,-0.2633,-0.267,-0.2717,-0.2709,-0.2704,-0.2676,-0.2675,-0.2663,-0.2628,-0.2616,-0.2614,-0.2604,-0.2615,-0.2619,-0.26,-0.2624,-0.2628,-0.2632,-0.2625,-0.2621,-0.2626,-0.2631,-0.2569,-0.2568,-0.2568,0,0,-0.2643,-0.2717,-0.2759,-0.2749,-0.2745,-0.2729,-0.2731,-0.2707,-0.2694,-0.269,-0.2669,-0.2678,-0.2666,-0.2664,-0.2663,-0.2713,-0.2665,-0.2713,-0.2732,-0.2731,-0.2734,-0.2738,-0.2697,-0.2696,-0.2709,-0.271,-0.271,0,-0.2661,-0.2722,-0.276,-0.2768,-0.2753,-0.2742,-0.2733,-0.2734,-0.2706,-0.2709,-0.2689,-0.2699,-0.2691,-0.2714,-0.2724,-0.2726,-0.2699,-0.2698,-0.2737,-0.274,-0.2742,-0.27,-0.2698,-0.2712,-0.2712,-0.2712,-0.2711,0,-0.2705,-0.2738,-0.2756,-0.2771,-0.277,-0.2759,-0.2758,-0.2765,-0.2753,-0.2742,-0.2763,-0.276,-0.2758,-0.2769,-0.2755,-0.278,-0.2745,-0.2749,-0.2711,-0.275,-0.2703,-0.2701,-0.2716,-0.2715,-0.2714,-0.2714,0,0,-0.2743,-0.2779,-0.2774,-0.2758,-0.2758,-0.2749,-0.2774,-0.2776,-0.2787,-0.2786,-0.2791,-0.2816,-0.2815,-0.2815,-0.2813,-0.2813,-0.2806,-0.2783,-0.2782,-0.2731,-0.2766,-0.2664,-0.2651,-0.281,-0.2811,-0.2811,-0.2719,0,-0.2733,-0.274,-0.2769,-0.2743,-0.2727,-0.2741,-0.2758,-0.2771,-0.2785,-0.2798,-0.2824,-0.2831,-0.2834,-0.2832,-0.284,-0.282,-0.2804,-0.2828,-0.2745,-0.2742,-0.2638,-0.2647,-0.2511,-0.2411,-0.2717,-0.2716,-0.2716,0,-0.2728,-0.2725,-0.2708,-0.2703,-0.2705,-0.2698,-0.2715,-0.2733,-0.2784,-0.2803,-0.2835,-0.2846,-0.2864,-0.2854,-0.2836,-0.2847,-0.2805,-0.2785,-0.2781,-0.2666,-0.2636,-0.2426,-0.2395,-0.2381,-0.2712,-0.2712,-0.2712,0,-0.2669,-0.267,-0.2649,-0.2637,-0.2651,-0.2655,-0.267,-0.2721,-0.2744,-0.2799,-0.2813,-0.285,-0.2844,-0.2834,-0.2799,-0.2811,-0.2755,-0.2769,-0.2634,-0.2625,-0.2482,-0.246,-0.2416,-0.2741,-0.2741,-0.2741,-0.2741,0,-0.2616,-0.2589,-0.2612,-0.2587,-0.2557,-0.2601,-0.2604,-0.2644,-0.2708,-0.2725,-0.2799,-0.2803,-0.2837,-0.2815,-0.279,-0.2692,-0.2747,-0.2624,-0.2598,-0.2493,-0.2473,-0.2433,-0.248,-0.2738,-0.2738,-0.2739,-0.274,0,-0.2522,-0.2554,-0.2503,-0.2512,-0.2519,-0.2485,-0.2537,-0.2555,-0.2637,-0.266,-0.2674,-0.2747,-0.2716,-0.2726,-0.2689,-0.265,-0.2537,-0.2538,-0.2391,-0.2348,-0.2204,-0.2259,-0.2203,-0.2132,-0.2369,-0.2366,-0.2363,0,-0.2467,-0.2436,-0.2416,-0.239,-0.2381,-0.2373,-0.2385,-0.2485,-0.2516,-0.2609,-0.2605,-0.2613,-0.2576,-0.2498,-0.2434,-0.235,-0.2395,-0.2187,-0.2195,-0.2162,-0.2205,-0.2268,-0.2218,-0.2017,-0.2012,-0.2008,-0.2004,0,-0.231,-0.2309,-0.2264,-0.2232,-0.2218,-0.222,-0.225,-0.2268,-0.239,-0.2418,-0.2434,-0.2414,-0.2351,-0.2214,-0.2128,-0.207,-0.2134,-0.2094,-0.2108,-0.1959,-0.1977,-0.1905,-0.2101,-0.1966,-0.197,-0.1973,-0.1975,-0.1977,-0.2161,-0.2093,-0.2061,-0.2021,-0.2028,-0.2035,-0.1996,-0.2068,-0.2084,-0.2097,-0.2191,-0.2124,-0.2072,-0.1919,-0.1853,-0.1716,-0.183,-0.1676,-0.175,-0.1821,-0.174,-0.1831,-0.1647,-0.1649,-0.1651,-0.1652,-0.1653,0,-0.1943,-0.1912,-0.1866,-0.1816,-0.1785,-0.1856,-0.1879,-0.1832,-0.1791,-0.1849,-0.1831,-0.1788,-0.1647,-0.162,-0.1503,-0.1418,-0.1398,-0.1405,-0.1474,-0.1442,-0.1535,-0.1506,-0.1223,-0.1223,-0.1224,-0.1224,-0.1224,-0.1224,-0.182,-0.1707,-0.1704,-0.1581,-0.1571,-0.1479,-0.1458,-0.1425,-0.1434,-0.1375,-0.138,-0.1427,-0.1468,-0.1568,-0.1431,-0.1334,-0.1336,-0.1283,-0.135,-0.1441,-0.1474,-0.1504,-0.1486,-0.1204,-0.1204,-0.1163,-0.1163,-0.1163]},{"header":{"parameterUnit":"m.s-1","parameterCategory":2,"la1":30.2991,"la2":30.254,"lo1":-89.0895,"lo2":-89.0444,"dy":0.0017,"dx":0.0017,"nx":28,"ny":28,"refTime":"2025-01-10T09:00:00:Z","depth":"0","parameterNumber":3,"parameterNumberName":"V-component_of_CURRENTS"},"data":[0,0,0,0,0,0,0,0,0,0,0,0,0,0,0,0,0,0,0,0,0,0,0,0,0,0,0,0,0,0,0,0,0,0,0,0,0,0,0,0,0,0,0,0,0,0,0,0,0,0,0,0,0,0,0,0,0,0,-0.0553,-0.0551,0,-0.036,-0.0358,-0.0356,-0.0253,-0.0253,-0.0253,-0.0252,-0.0099,-0.0095,-0.0092,0,0,0,0,0,0,0,0,0,0,0,0,0,-0.0583,-0.0585,-0.0553,-0.0551,-0.0548,-0.036,-0.0358,-0.0355,-0.0253,-0.0253,-0.0253,-0.0252,-0.01,-0.0096,-0.0091,0,0,0,0,0,0,0,0,0,0,0,0,0,-0.05,-0.0585,-0.0554,-0.0474,-0.0465,-0.0361,-0.0358,-0.0354,-0.0253,-0.0253,-0.0252,-0.0252,-0.0102,-0.0096,-0.0091,-0.0064,0,0,-0.0073,-0.0071,0,0,0,0,0,0,0,0,-0.0505,-0.0499,-0.0488,-0.0479,-0.0469,-0.0329,-0.0311,-0.0259,-0.0253,-0.0335,-0.0252,-0.0252,-0.0179,-0.0167,-0.0133,-0.0057,-0.005,-0.0073,-0.0069,-0.0067,-0.0065,0,0,0,0,0,0,0,-0.0511,-0.0505,-0.0478,-0.0485,-0.0474,-0.0361,-0.0352,-0.03,-0.0264,-0.0328,-0.0319,-0.0296,-0.0174,-0.0139,-0.0129,-0.0048,-0.0073,-0.0068,-0.0064,-0.0062,0.0068,0.0068,0,0,0,0,0,0,-0.0547,-0.0513,-0.0484,-0.0472,-0.0485,-0.0362,-0.0351,-0.0375,-0.0263,-0.0245,-0.0297,-0.0292,-0.0149,-0.0135,-0.0123,-0.0089,-0.0067,-0.0062,-0.0058,0.0068,0.0068,0.0068,0,0,0,0,0,0,-0.0549,-0.0548,-0.0492,-0.0483,-0.0468,-0.0364,-0.039,-0.0372,-0.0332,-0.0239,-0.0222,-0.0277,-0.0148,-0.0131,-0.0077,-0.0082,-0.0059,-0.0054,0.0068,0.0068,0.0068,-0.0018,0,0,0,0,0,0,-0.0552,-0.0552,-0.0589,-0.0488,-0.047,-0.0435,-0.039,-0.0368,-0.0318,-0.031,-0.0216,-0.0201,-0.0146,-0.0086,-0.0072,-0.0074,-0.0049,0.0068,0.0068,0.0068,-0.0015,-0.0021,-0.0026,0,0,0,0,0,-0.0554,-0.0606,-0.0594,-0.0589,-0.0526,-0.0435,-0.0416,-0.0338,-0.0318,-0.0302,-0.0241,-0.0204,-0.0076,-0.0082,-0.0065,-0.0065,0.0068,0.0068,0.0068,-0.0013,-0.002,-0.0026,0,0,0,0,0,0,-0.0646,-0.0597,-0.0582,-0.0622,-0.0537,-0.0418,-0.0401,-0.0345,-0.0282,-0.0281,-0.02,-0.0181,-0.0136,-0.0089,-0.0097,-0.0027,0.0001,0.0005,-0.0066,-0.0072,-0.0077,-0.0095,-0.0045,0,0,0,0,0,-0.0687,-0.0714,-0.0624,-0.0654,-0.0619,-0.0513,-0.0472,-0.0411,-0.0334,-0.0305,-0.0238,-0.0175,-0.0122,-0.0089,-0.0034,0.0006,0.0054,0.0016,0.0011,0.0006,0.0004,0.0066,0.0066,0.0068,0.0068,0.0068,0,0,-0.0735,-0.0707,-0.0727,-0.0674,-0.0608,-0.0552,-0.0488,-0.0426,-0.0384,-0.0301,-0.0246,-0.0191,-0.0116,-0.0071,-0.0047,-0.0032,0.0031,0.0006,0.0001,0.0002,0.0066,0.0066,0.0066,0.0069,0.0069,0.0069,0,0,-0.0797,-0.0814,-0.083,-0.0761,-0.0665,-0.0595,-0.0581,-0.0463,-0.0422,-0.0356,-0.0295,-0.0244,-0.0154,-0.0101,-0.0064,-0.0065,-0.0002,-0.005,-0.0085,-0.0026,-0.0026,-0.0025,0.0034,0.0041,-0.005,-0.005,-0.005,0,-0.0852,-0.086,-0.0813,-0.0775,-0.0723,-0.062,-0.0581,-0.0522,-0.0403,-0.0379,-0.0353,-0.0226,-0.0167,-0.0111,-0.011,-0.0078,-0.0033,-0.0071,-0.0034,-0.0032,-0.003,0.0031,0.0039,-0.0054,-0.0053,-0.0053,-0.0053,0,-0.0886,-0.0882,-0.0876,-0.081,-0.0754,-0.0702,-0.0603,-0.0562,-0.0506,-0.0439,-0.0376,-0.029,-0.0215,-0.0191,-0.0149,-0.0106,-0.0076,-0.0053,-0.0024,-0.0036,0.0029,0.004,-0.006,-0.0058,-0.0057,-0.0056,0,0,-0.1009,-0.0923,-0.0915,-0.0877,-0.0761,-0.0711,-0.0669,-0.0587,-0.0567,-0.0473,-0.0436,-0.0346,-0.0301,-0.0257,-0.0196,-0.0143,-0.0091,-0.0099,-0.0094,-0.0051,0.0043,0.0084,0.01,-0.0063,-0.0062,-0.0061,0.0081,0,-0.1032,-0.0988,-0.0935,-0.0878,-0.0832,-0.0743,-0.0712,-0.0638,-0.0576,-0.0522,-0.0438,-0.0379,-0.0325,-0.0294,-0.0234,-0.0126,-0.0067,-0.0131,0.0058,0.0064,0.0093,0.0112,0.0161,0.0294,0.0092,0.0093,0.0095,0,-0.1062,-0.1017,-0.0978,-0.0899,-0.0876,-0.0838,-0.0771,-0.0726,-0.0646,-0.0605,-0.0535,-0.046,-0.0368,-0.0324,-0.0147,-0.0191,-0.0084,0.0001,0.0009,0.0086,0.0125,0.0276,0.0321,0.0509,0.0111,0.011,0.0109,0,-0.1136,-0.1049,-0.1025,-0.0985,-0.0885,-0.0872,-0.0828,-0.0757,-0.0733,-0.0653,-0.0626,-0.0508,-0.044,-0.0301,-0.0123,-0.0133,0.0076,0.0088,0.023,0.0234,0.0333,0.0344,0.0575,0.0214,0.0214,0.0213,0.0213,0,-0.1175,-0.1147,-0.1056,-0.1034,-0.1006,-0.0927,-0.0915,-0.0865,-0.0808,-0.0781,-0.0674,-0.0617,-0.0431,-0.0287,-0.0134,0.0085,0.0075,0.0233,0.0277,0.0305,0.0311,0.0525,0.0589,0.0218,0.0217,0.0216,0.0215,0,-0.1247,-0.1199,-0.1145,-0.1055,-0.1039,-0.1013,-0.0965,-0.0962,-0.0902,-0.0861,-0.0838,-0.0688,-0.0496,-0.0298,-0.0055,0.0078,0.0403,0.0357,0.0375,0.0419,0.0704,0.076,0.1026,0.1149,0.053,0.0532,0.0534,0,-0.1283,-0.1264,-0.117,-0.1154,-0.1113,-0.1079,-0.1075,-0.1015,-0.1004,-0.0894,-0.0875,-0.0692,-0.0542,-0.0175,0.0091,0.0374,0.0517,0.0579,0.0568,0.0741,0.0837,0.0879,0.0965,0.0672,0.0675,0.0677,0.0679,0,-0.1306,-0.1271,-0.1217,-0.12,-0.1184,-0.1169,-0.1149,-0.1156,-0.1085,-0.1025,-0.0902,-0.0771,-0.0418,-0.0072,0.0284,0.0458,0.0728,0.0631,0.0821,0.0978,0.1031,0.1162,0.0553,0.0698,0.0696,0.0695,0.0694,0.0693,-0.1304,-0.1274,-0.1224,-0.1209,-0.1215,-0.1237,-0.1226,-0.1202,-0.116,-0.1035,-0.0918,-0.0664,-0.0193,0.0321,0.0519,0.0955,0.0911,0.1092,0.115,0.118,0.1292,0.0717,0.0896,0.0896,0.0895,0.0894,0.0894,0,-0.1262,-0.1248,-0.1246,-0.1224,-0.1257,-0.1254,-0.1256,-0.1218,-0.1149,-0.1,-0.0836,-0.0292,0.0196,0.0637,0.1224,0.1469,0.1528,0.1589,0.1678,0.1746,0.1262,0.1262,0.1517,0.1517,0.1516,0.1516,0.1516,0.1516,-0.1234,-0.1208,-0.1215,-0.1248,-0.1265,-0.1268,-0.1261,-0.1184,-0.106,-0.0749,-0.0437,-0.0201,0.0417,0.1352,0.1918,0.1972,0.2197,0.2163,0.2285,0.196,0.1918,0.1878,0.1897,0.2281,0.2281,0.2773,0.2778,0.2781]}],[{"header":{"parameterUnit":"m.s-1","parameterCategory":2,"la1":30.2991,"la2":30.254,"lo1":-89.0895,"lo2":-89.0444,"dy":0.0017,"dx":0.0017,"nx":28,"ny":28,"refTime":"2025-01-10T09:00:00:Z","depth":"2","parameterNumber":2,"parameterNumberName":"U-component_of_CURRENTS"},"data":[0,0,0,0,0,0,0,0,0,0,0,0,0,0,0,0,0,0,0,0,0,0,0,0,0,0,0,0,0,0,0,0,0,0,0,0,0,0,0,0,0,0,0,0,0,0,0,0,0,0,0,0,0,0,0,0,0,0,-0.2302,-0.2303,0,-0.2374,-0.2374,-0.2375,-0.2352,-0.2351,-0.235,-0.2348,-0.2332,-0.2333,-0.2333,0,0,0,0,0,0,0,0,0,0,0,0,0,-0.2161,-0.2163,-0.2301,-0.2303,-0.2304,-0.2374,-0.2374,-0.2375,-0.2352,-0.2351,-0.2349,-0.2348,-0.2332,-0.2333,-0.2334,0,0,0,0,0,0,0,0,0,0,0,0,0,-0.2223,-0.2164,-0.2301,-0.2304,-0.2306,-0.2374,-0.2374,-0.2375,-0.2352,-0.2351,-0.2349,-0.2347,-0.2332,-0.2333,-0.2334,-0.2374,0,0,-0.2337,-0.2337,0,0,0,0,0,0,0,0,-0.2219,-0.2227,-0.2303,-0.2304,-0.2306,-0.2356,-0.2319,-0.2372,-0.2353,-0.233,-0.2348,-0.2346,-0.2336,-0.2337,-0.2349,-0.2373,-0.2372,-0.2337,-0.2337,-0.2338,-0.2338,0,0,0,0,0,0,0,-0.2215,-0.2224,-0.2326,-0.2304,-0.2306,-0.2308,-0.2314,-0.2329,-0.2337,-0.2332,-0.2331,-0.2347,-0.2335,-0.2348,-0.2348,-0.2372,-0.2337,-0.2337,-0.2338,-0.2338,-0.2417,-0.2419,0,0,0,0,0,0,-0.2216,-0.222,-0.2324,-0.2328,-0.2262,-0.2313,-0.2319,-0.2338,-0.2339,-0.2339,-0.2348,-0.2346,-0.2347,-0.2347,-0.2348,-0.2382,-0.2338,-0.2339,-0.2339,-0.2416,-0.2418,-0.2419,0,0,0,0,0,0,-0.2213,-0.2225,-0.2321,-0.2279,-0.2292,-0.2317,-0.2338,-0.234,-0.2353,-0.2353,-0.235,-0.2359,-0.2346,-0.2346,-0.2363,-0.2381,-0.2339,-0.234,-0.2414,-0.2416,-0.2418,-0.2458,0,0,0,0,0,0,-0.2209,-0.2223,-0.2235,-0.2279,-0.2294,-0.2364,-0.234,-0.2343,-0.2368,-0.2364,-0.2362,-0.2358,-0.2345,-0.2362,-0.2364,-0.2381,-0.2341,-0.2412,-0.2415,-0.2418,-0.2455,-0.2461,-0.2467,0,0,0,0,0,-0.2203,-0.2231,-0.2236,-0.2248,-0.2311,-0.2366,-0.2373,-0.2382,-0.237,-0.2384,-0.2379,-0.2358,-0.2381,-0.2364,-0.2366,-0.2384,-0.2411,-0.2414,-0.2417,-0.2452,-0.246,-0.2467,0,0,0,0,0,0,-0.2174,-0.2234,-0.2239,-0.2281,-0.2321,-0.2363,-0.2382,-0.2391,-0.2402,-0.2394,-0.238,-0.2378,-0.2401,-0.2394,-0.2376,-0.2417,-0.2392,-0.2396,-0.2418,-0.2425,-0.2431,-0.2423,-0.2341,0,0,0,0,0,-0.2177,-0.2209,-0.2264,-0.2295,-0.2319,-0.2351,-0.2374,-0.2386,-0.2406,-0.2409,-0.2408,-0.2409,-0.2421,-0.2422,-0.2432,-0.2457,-0.2436,-0.2471,-0.2477,-0.2482,-0.2479,-0.2479,-0.2484,-0.243,-0.243,-0.243,0,0,-0.2172,-0.221,-0.2226,-0.2291,-0.2319,-0.2362,-0.2359,-0.2402,-0.2426,-0.2407,-0.243,-0.2435,-0.2435,-0.246,-0.2469,-0.2452,-0.2485,-0.2487,-0.2491,-0.2484,-0.2483,-0.2488,-0.2493,-0.2433,-0.2432,-0.2432,0,0,-0.2186,-0.2216,-0.225,-0.2289,-0.2347,-0.2372,-0.2387,-0.2436,-0.2444,-0.248,-0.2469,-0.2486,-0.2504,-0.2508,-0.2511,-0.2562,-0.2522,-0.2565,-0.2583,-0.2584,-0.2587,-0.2591,-0.2556,-0.2556,-0.2562,-0.2562,-0.2562,0,-0.2179,-0.2227,-0.2267,-0.2314,-0.2343,-0.2377,-0.2416,-0.2444,-0.2487,-0.2497,-0.2488,-0.2526,-0.2527,-0.2555,-0.2568,-0.2575,-0.2553,-0.2551,-0.259,-0.2592,-0.2595,-0.2559,-0.2558,-0.2565,-0.2564,-0.2564,-0.2564,0,-0.2221,-0.2259,-0.2284,-0.2348,-0.2386,-0.2427,-0.2475,-0.2504,-0.2517,-0.2538,-0.2572,-0.2582,-0.2597,-0.2609,-0.2601,-0.2627,-0.2597,-0.26,-0.2565,-0.2602,-0.2562,-0.256,-0.2568,-0.2567,-0.2567,-0.2566,0,0,-0.2199,-0.2295,-0.23,-0.2327,-0.2405,-0.2438,-0.2487,-0.2536,-0.2557,-0.2594,-0.2614,-0.2649,-0.2649,-0.2654,-0.2654,-0.2656,-0.2653,-0.2632,-0.2631,-0.2586,-0.2624,-0.2525,-0.2513,-0.2659,-0.2659,-0.2659,-0.2582,0,-0.2213,-0.2289,-0.2337,-0.2391,-0.2429,-0.2478,-0.2516,-0.2563,-0.2592,-0.2621,-0.2643,-0.2664,-0.2668,-0.267,-0.2679,-0.2666,-0.2653,-0.2672,-0.2604,-0.2601,-0.25,-0.251,-0.2318,-0.2227,-0.258,-0.258,-0.258,0,-0.2224,-0.2277,-0.2336,-0.2404,-0.2424,-0.246,-0.2513,-0.2556,-0.2611,-0.2632,-0.2666,-0.2678,-0.2699,-0.2691,-0.2683,-0.2691,-0.2656,-0.264,-0.2637,-0.2528,-0.25,-0.2252,-0.221,-0.2576,-0.2577,-0.2577,-0.2577,0,-0.2166,-0.226,-0.2299,-0.2329,-0.2424,-0.2446,-0.2486,-0.255,-0.2576,-0.2633,-0.2647,-0.2685,-0.2684,-0.268,-0.2654,-0.2664,-0.2621,-0.2632,-0.2506,-0.2498,-0.2312,-0.2286,-0.2609,-0.2609,-0.261,-0.261,-0.261,0,-0.2146,-0.2173,-0.2274,-0.2297,-0.2329,-0.2409,-0.2438,-0.2489,-0.255,-0.2567,-0.2638,-0.2642,-0.268,-0.2665,-0.2647,-0.256,-0.2614,-0.2498,-0.2474,-0.2319,-0.2296,-0.2588,-0.2587,-0.2607,-0.2608,-0.2608,-0.2609,0,-0.2063,-0.2136,-0.2181,-0.2279,-0.2301,-0.2318,-0.2392,-0.2413,-0.2491,-0.2513,-0.2527,-0.2595,-0.257,-0.2585,-0.2559,-0.2523,-0.2473,-0.2425,-0.2223,-0.2177,-0.2347,-0.2349,-0.2275,-0.2271,-0.2267,-0.2265,-0.2262,0,-0.2021,-0.2043,-0.2137,-0.2149,-0.2187,-0.2231,-0.2252,-0.2355,-0.238,-0.2465,-0.2459,-0.2471,-0.2432,-0.2369,-0.2311,-0.2237,-0.2348,-0.2032,-0.2026,-0.2329,-0.2314,-0.2321,-0.2328,-0.1787,-0.1781,-0.1776,-0.1772,0,-0.1934,-0.1973,-0.201,-0.204,-0.2065,-0.2096,-0.2142,-0.2155,-0.2264,-0.2282,-0.2289,-0.2267,-0.2211,-0.2051,-0.1978,-0.1922,-0.2037,-0.1926,-0.2288,-0.1911,-0.1866,-0.1853,-0.1876,-0.1728,-0.1732,-0.1736,-0.1738,-0.174,-0.1848,-0.1843,-0.189,-0.1901,-0.1932,-0.1936,-0.1907,-0.1967,-0.1972,-0.1967,-0.2051,-0.1958,-0.1946,-0.1718,-0.1628,-0.1569,-0.1715,-0.1656,-0.1673,-0.1695,-0.1662,-0.1614,-0.142,-0.1422,-0.1425,-0.1427,-0.1428,0,-0.1725,-0.1736,-0.1742,-0.1752,-0.1724,-0.1791,-0.1805,-0.1753,-0.1699,-0.172,-0.1689,-0.1507,-0.1378,-0.1382,-0.1205,-0.1175,-0.1181,-0.1139,-0.1152,-0.1195,-0.1233,-0.118,-0.0808,-0.0807,-0.0805,-0.0804,0,0,-0.166,-0.1624,-0.1628,-0.1539,-0.1538,-0.1452,-0.1425,-0.1378,-0.136,-0.1268,-0.1217,-0.1293,-0.1323,-0.1072,-0.1008,-0.0878,-0.103,-0.0828,-0.132,-0.1376,-0.1413,-0.1518,-0.1481,0,0,0,0,0]},{"header":{"parameterUnit":"m.s-1","parameterCategory":2,"la1":30.2991,"la2":30.254,"lo1":-89.0895,"lo2":-89.0444,"dy":0.0017,"dx":0.0017,"nx":28,"ny":28,"refTime":"2025-01-10T09:00:00:Z","depth":"2","parameterNumber":3,"parameterNumberName":"V-component_of_CURRENTS"},"data":[0,0,0,0,0,0,0,0,0,0,0,0,0,0,0,0,0,0,0,0,0,0,0,0,0,0,0,0,0,0,0,0,0,0,0,0,0,0,0,0,0,0,0,0,0,0,0,0,0,0,0,0,0,0,0,0,0,0,-0.0206,-0.0205,0,-0.0133,-0.0132,-0.0131,-0.0073,-0.0073,-0.0072,-0.0072,0.0057,0.006,0.0063,0,0,0,0,0,0,0,0,0,0,0,0,0,-0.023,-0.023,-0.0206,-0.0205,-0.0204,-0.0133,-0.0132,-0.0131,-0.0073,-0.0073,-0.0072,-0.0072,0.0056,0.0059,0.0063,0,0,0,0,0,0,0,0,0,0,0,0,0,-0.0193,-0.023,-0.0206,-0.0169,-0.0165,-0.0133,-0.0132,-0.013,-0.0073,-0.0073,-0.0072,-0.0071,0.0054,0.0059,0.0063,0.0081,0,0,0.0077,0.0079,0,0,0,0,0,0,0,0,-0.0195,-0.0191,-0.0175,-0.0171,-0.0167,-0.0114,-0.0094,-0.0058,-0.0073,-0.0105,-0.0072,-0.0071,0.0003,0.0012,0.0027,0.0087,0.0092,0.0078,0.0081,0.0083,0.0084,0,0,0,0,0,0,0,-0.0198,-0.0194,-0.0175,-0.0174,-0.0169,-0.0134,-0.0128,-0.0086,-0.0052,-0.0103,-0.0099,-0.0095,0.0006,0.0022,0.003,0.0094,0.0078,0.0082,0.0085,0.0086,0.0189,0.0189,0,0,0,0,0,0,-0.0215,-0.0197,-0.0177,-0.0173,-0.0182,-0.0134,-0.0128,-0.0129,-0.0054,-0.0043,-0.0095,-0.0092,0.0014,0.0025,0.0035,0.0062,0.0083,0.0087,0.009,0.0189,0.0189,0.0189,0,0,0,0,0,0,-0.0216,-0.0214,-0.018,-0.0184,-0.0178,-0.0135,-0.0137,-0.0128,-0.0113,-0.0049,-0.0037,-0.0089,0.0015,0.0029,0.0071,0.0067,0.0089,0.0093,0.0189,0.0189,0.0189,0.0114,0,0,0,0,0,0,-0.0217,-0.0215,-0.0223,-0.0186,-0.0178,-0.017,-0.0137,-0.0127,-0.0112,-0.0107,-0.004,-0.0027,0.0016,0.0063,0.0075,0.0074,0.0097,0.0189,0.0189,0.0189,0.0117,0.0112,0.0107,0,0,0,0,0,-0.0218,-0.0237,-0.0224,-0.0221,-0.019,-0.0171,-0.0164,-0.0129,-0.0113,-0.0112,-0.0063,-0.0029,0.0072,0.0067,0.0081,0.0081,0.0189,0.0189,0.0189,0.0119,0.0113,0.0107,0,0,0,0,0,0,-0.0247,-0.0232,-0.0216,-0.0228,-0.0204,-0.0163,-0.0161,-0.0136,-0.0098,-0.0092,-0.0029,-0.0013,0.0022,0.0062,0.0055,0.0111,0.0136,0.0138,0.0077,0.0072,0.0067,0.0053,0.0101,0,0,0,0,0,-0.026,-0.027,-0.0242,-0.0249,-0.0242,-0.0202,-0.019,-0.0168,-0.013,-0.0113,-0.0064,-0.0012,0.0032,0.0059,0.0102,0.0133,0.0176,0.0143,0.0138,0.0134,0.0132,0.0186,0.0185,0.0189,0.0189,0.0189,0,0,-0.0272,-0.0265,-0.027,-0.0256,-0.0234,-0.0231,-0.0193,-0.0183,-0.0172,-0.0104,-0.0075,-0.0029,0.0036,0.0069,0.0089,0.0103,0.0156,0.0134,0.0129,0.013,0.0186,0.0185,0.0185,0.0189,0.0189,0.0189,0,0,-0.0307,-0.0297,-0.0318,-0.0305,-0.0285,-0.0258,-0.026,-0.0222,-0.0197,-0.0166,-0.0115,-0.0072,-0.0005,0.0041,0.0073,0.0069,0.0125,0.0082,0.0051,0.0103,0.0103,0.0104,0.0157,0.0163,0.0083,0.0083,0.0083,0,-0.0323,-0.0343,-0.0319,-0.0332,-0.0325,-0.0276,-0.0288,-0.0256,-0.0207,-0.0187,-0.0167,-0.0068,-0.0018,0.0032,0.0031,0.0058,0.0097,0.0065,0.0096,0.0097,0.0099,0.0154,0.0161,0.008,0.008,0.008,0.0081,0,-0.0373,-0.0383,-0.0394,-0.0393,-0.038,-0.0384,-0.0341,-0.032,-0.0284,-0.0247,-0.0196,-0.0124,-0.0065,-0.0043,-0.0005,0.0033,0.0058,0.0078,0.0106,0.0094,0.0153,0.0162,0.0074,0.0076,0.0077,0.0078,0,0,-0.0425,-0.043,-0.0432,-0.044,-0.0414,-0.041,-0.0391,-0.0358,-0.0345,-0.0286,-0.0259,-0.0181,-0.0142,-0.0103,-0.0047,0.0001,0.0047,0.0038,0.0043,0.0082,0.0163,0.0188,0.0201,0.0069,0.0071,0.0071,0.0198,0,-0.0469,-0.0511,-0.0494,-0.0515,-0.0531,-0.048,-0.0466,-0.0427,-0.038,-0.034,-0.0258,-0.0212,-0.0163,-0.0137,-0.0082,0.0014,0.0067,0.0011,0.0176,0.0181,0.0198,0.0211,0.0186,0.0297,0.0207,0.0209,0.021,0,-0.0524,-0.0545,-0.0585,-0.058,-0.058,-0.058,-0.0547,-0.0527,-0.0455,-0.0418,-0.0355,-0.0287,-0.0204,-0.0165,-0.0007,-0.0047,0.0049,0.0126,0.0133,0.0189,0.0224,0.0297,0.0318,0.0226,0.0225,0.0223,0.0222,0,-0.0582,-0.0602,-0.0637,-0.0638,-0.0628,-0.0627,-0.061,-0.0556,-0.0536,-0.0464,-0.044,-0.0333,-0.0274,-0.0149,0.001,0.0003,0.0186,0.02,0.0317,0.0321,0.0349,0.0353,0.0312,0.0312,0.0312,0.0312,0.0311,0,-0.064,-0.0664,-0.0669,-0.0692,-0.0721,-0.0687,-0.0695,-0.066,-0.0609,-0.0586,-0.0487,-0.0436,-0.0269,-0.0141,-0.0002,0.0188,0.0183,0.0318,0.0357,0.0323,0.0322,0.0298,0.0295,0.0316,0.0315,0.0314,0.0314,0,-0.0702,-0.0703,-0.0745,-0.0752,-0.0754,-0.0775,-0.0756,-0.0754,-0.0699,-0.0665,-0.0644,-0.0507,-0.0339,-0.0159,0.0057,0.0175,0.0351,0.0421,0.037,0.04,0.0454,0.0445,0.0562,0.0564,0.0566,0.0567,0.0569,0,-0.0733,-0.077,-0.0803,-0.0824,-0.0831,-0.0848,-0.0855,-0.0809,-0.0797,-0.0699,-0.0681,-0.0522,-0.0388,-0.0065,0.0161,0.0411,0.0412,0.0531,0.0514,0.0455,0.0481,0.0469,0.0459,0.0528,0.0528,0.0529,0.053,0,-0.0803,-0.082,-0.0853,-0.0901,-0.0921,-0.0941,-0.094,-0.0945,-0.0878,-0.0821,-0.0708,-0.0593,-0.0295,-0.0025,0.0281,0.0425,0.0484,0.0552,0.0521,0.0458,0.043,0.0452,0.0442,0.0535,0.0534,0.0534,0.0534,0.0534,-0.0845,-0.0885,-0.0927,-0.0965,-0.0993,-0.1014,-0.1015,-0.0988,-0.0947,-0.0827,-0.0727,-0.0509,-0.0282,0.0171,0.0377,0.0571,0.0565,0.0623,0.0619,0.0614,0.0577,0.0552,0.0674,0.0674,0.0674,0.0675,0.0675,0,-0.0892,-0.0933,-0.0981,-0.102,-0.1052,-0.1052,-0.1051,-0.1013,-0.0942,-0.0801,-0.0652,-0.0363,-0.0066,0.0179,0.0488,0.0661,0.0641,0.0689,0.0627,0.062,0.0615,0.0575,0.0674,0.0675,0.0675,0.0676,0,0,-0.0914,-0.0976,-0.0996,-0.1052,-0.1077,-0.1084,-0.1074,-0.0993,-0.0876,-0.0705,-0.0528,-0.0319,-0.0035,0.0184,0.0388,0.0546,0.0541,0.0561,0.0544,0.044,0.0433,0.0561,0.0491,0,0,0,0,0]}],[{"header":{"parameterUnit":"m.s-1","parameterCategory":2,"la1":30.2991,"la2":30.254,"lo1":-89.0895,"lo2":-89.0444,"dy":0.0017,"dx":0.0017,"nx":28,"ny":28,"refTime":"2025-01-10T09:00:00:Z","depth":"4","parameterNumber":2,"parameterNumberName":"U-component_of_CURRENTS"},"data":[0,0,0,0,0,0,0,0,0,0,0,0,0,0,0,0,0,0,0,0,0,0,0,0,0,0,0,0,0,0,0,0,0,0,0,0,0,0,0,0,0,0,0,0,0,0,0,0,0,0,0,0,0,0,0,0,0,0,-0.1629,-0.163,0,-0.1743,-0.1744,-0.1745,-0.179,-0.179,-0.179,-0.179,-0.1851,-0.1853,-0.1854,0,0,0,0,0,0,0,0,0,0,0,0,0,-0.1515,-0.1516,-0.1629,-0.163,-0.1632,-0.1742,-0.1744,-0.1745,-0.179,-0.179,-0.179,-0.179,-0.1851,-0.1853,-0.1855,0,0,0,0,0,0,0,0,0,0,0,0,0,-0.1588,-0.1517,-0.1628,-0.1669,-0.1674,-0.1742,-0.1744,-0.1745,-0.179,-0.179,-0.179,-0.179,-0.185,-0.1852,-0.1855,-0.1873,0,0,-0.1863,-0.1864,0,0,0,0,0,0,0,0,-0.1583,-0.1591,-0.1662,-0.1667,-0.1672,-0.1754,-0.1726,-0.1786,-0.179,-0.1744,-0.179,-0.179,-0.1815,-0.1821,-0.184,-0.1875,-0.1878,-0.1863,-0.1864,-0.1866,-0.1866,0,0,0,0,0,0,0,-0.1578,-0.1587,-0.1671,-0.1664,-0.167,-0.1705,-0.1714,-0.1738,-0.1776,-0.1748,-0.1752,-0.1768,-0.1818,-0.1837,-0.1841,-0.1879,-0.1863,-0.1865,-0.1867,-0.1868,-0.1991,-0.1993,0,0,0,0,0,0,-0.1566,-0.1582,-0.1668,-0.1675,-0.1629,-0.1707,-0.1717,-0.1726,-0.1777,-0.1786,-0.1768,-0.177,-0.1833,-0.1838,-0.1844,-0.192,-0.1866,-0.1868,-0.1869,-0.199,-0.1992,-0.1994,0,0,0,0,0,0,-0.1563,-0.1572,-0.1663,-0.1633,-0.1648,-0.1708,-0.1718,-0.1728,-0.1776,-0.1794,-0.1801,-0.1809,-0.1833,-0.184,-0.189,-0.1921,-0.1869,-0.1871,-0.1988,-0.199,-0.1993,-0.2039,0,0,0,0,0,0,-0.1559,-0.157,-0.1582,-0.1632,-0.1649,-0.1721,-0.1719,-0.1731,-0.1786,-0.179,-0.183,-0.1834,-0.1834,-0.1887,-0.1893,-0.1923,-0.1873,-0.1985,-0.1989,-0.1992,-0.2036,-0.2043,-0.205,0,0,0,0,0,-0.1554,-0.1569,-0.1581,-0.1592,-0.1659,-0.1722,-0.1735,-0.1775,-0.1788,-0.1816,-0.1844,-0.1835,-0.1912,-0.189,-0.1897,-0.1929,-0.1984,-0.1988,-0.1992,-0.2032,-0.2042,-0.205,0,0,0,0,0,0,-0.1529,-0.1577,-0.1591,-0.162,-0.1675,-0.1731,-0.1764,-0.1794,-0.1841,-0.185,-0.186,-0.1867,-0.1922,-0.1923,-0.1899,-0.1975,-0.1946,-0.1951,-0.1974,-0.1983,-0.199,-0.1978,-0.1875,0,0,0,0,0,-0.1527,-0.155,-0.1606,-0.1634,-0.166,-0.1718,-0.1753,-0.1788,-0.1832,-0.1855,-0.1886,-0.1915,-0.1941,-0.196,-0.1985,-0.2029,-0.2009,-0.2054,-0.2062,-0.2067,-0.2064,-0.2068,-0.2074,-0.2007,-0.2007,-0.2007,0,0,-0.1526,-0.1557,-0.1571,-0.1631,-0.1674,-0.1727,-0.1739,-0.1804,-0.1851,-0.1853,-0.1926,-0.1946,-0.196,-0.2008,-0.2032,-0.2015,-0.2076,-0.2073,-0.2077,-0.207,-0.2072,-0.2078,-0.2084,-0.2009,-0.2009,-0.2009,0,0,-0.1539,-0.1564,-0.1591,-0.1641,-0.1715,-0.1752,-0.1777,-0.1854,-0.1889,-0.196,-0.1967,-0.2008,-0.2062,-0.2073,-0.2082,-0.2146,-0.2115,-0.216,-0.2185,-0.2189,-0.2194,-0.2198,-0.2172,-0.2173,-0.2161,-0.2161,-0.2161,0,-0.1539,-0.1579,-0.1612,-0.1661,-0.1708,-0.1766,-0.182,-0.1866,-0.1952,-0.1977,-0.199,-0.2071,-0.2088,-0.2127,-0.215,-0.2161,-0.2146,-0.2148,-0.2196,-0.22,-0.2203,-0.2175,-0.2176,-0.2164,-0.2163,-0.2163,-0.2163,0,-0.157,-0.1619,-0.1645,-0.1717,-0.1769,-0.1831,-0.1896,-0.1951,-0.2001,-0.2041,-0.2108,-0.2137,-0.2176,-0.2195,-0.2193,-0.2231,-0.2206,-0.2205,-0.2168,-0.2212,-0.218,-0.218,-0.2168,-0.2167,-0.2166,-0.2165,0,0,-0.1529,-0.1643,-0.1657,-0.1705,-0.1809,-0.1853,-0.1927,-0.2001,-0.204,-0.2117,-0.2161,-0.2221,-0.2234,-0.2246,-0.2254,-0.2263,-0.2276,-0.2246,-0.2245,-0.2208,-0.2263,-0.2103,-0.2087,-0.2283,-0.2283,-0.2284,-0.2227,0,-0.155,-0.1643,-0.1695,-0.1792,-0.1848,-0.192,-0.1978,-0.2049,-0.2103,-0.2157,-0.2193,-0.224,-0.2253,-0.2273,-0.2288,-0.2283,-0.228,-0.2289,-0.2236,-0.2233,-0.2076,-0.2083,-0.2286,-0.2226,-0.2226,-0.2226,-0.2226,0,-0.1557,-0.1625,-0.1721,-0.1831,-0.1859,-0.1923,-0.2014,-0.2074,-0.2147,-0.2185,-0.2236,-0.2261,-0.2299,-0.2298,-0.2307,-0.2313,-0.2291,-0.228,-0.2277,-0.2108,-0.2073,-0.2177,-0.2225,-0.2226,-0.2226,-0.2226,-0.2226,0,-0.1505,-0.1635,-0.1713,-0.1759,-0.1889,-0.1939,-0.2002,-0.2085,-0.2121,-0.22,-0.2224,-0.2278,-0.2296,-0.2301,-0.2289,-0.2301,-0.2272,-0.2283,-0.2113,-0.2101,-0.2242,-0.2239,-0.2273,-0.2273,-0.2273,-0.2273,-0.2273,0,-0.1493,-0.1558,-0.1701,-0.1748,-0.1824,-0.1921,-0.1987,-0.2052,-0.2125,-0.2145,-0.2231,-0.2234,-0.2298,-0.2291,-0.2283,-0.2181,-0.2267,-0.2101,-0.2073,-0.2263,-0.2263,-0.2241,-0.2238,-0.2271,-0.2271,-0.2272,-0.2272,0,-0.1422,-0.1524,-0.1618,-0.1764,-0.1806,-0.1858,-0.1968,-0.1997,-0.2087,-0.2112,-0.2134,-0.2201,-0.218,-0.2208,-0.2197,-0.2139,-0.2084,-0.2026,-0.2203,-0.2189,-0.1911,-0.1912,-0.1824,-0.1818,-0.1813,-0.1808,-0.1805,0,-0.139,-0.1437,-0.1602,-0.1645,-0.1717,-0.1805,-0.1846,-0.196,-0.198,-0.2062,-0.2048,-0.2068,-0.2089,-0.1937,-0.1997,-0.1944,-0.1928,-0.1889,-0.1919,-0.1882,-0.1865,-0.1874,-0.1881,-0.1796,-0.1795,-0.1794,-0.1792,0,-0.1323,-0.1396,-0.1474,-0.156,-0.1627,-0.1681,-0.1752,-0.175,-0.1851,-0.195,-0.1893,-0.1868,-0.1827,-0.1813,-0.1773,-0.175,-0.1915,-0.1834,-0.1846,-0.1874,-0.1848,-0.1837,-0.1851,-0.1774,-0.1777,-0.1778,-0.178,0,-0.1265,-0.1294,-0.1394,-0.145,-0.1525,-0.1529,-0.1587,-0.1597,-0.1629,-0.1726,-0.1696,-0.1725,-0.179,-0.1708,-0.1681,-0.1632,-0.1616,-0.1579,-0.1604,-0.1624,-0.1587,-0.1527,-0.1313,0,0,0,0,0,-0.1198,-0.1215,-0.1264,-0.1323,-0.1384,-0.1419,-0.1504,-0.156,-0.1657,-0.1563,-0.1624,-0.1577,-0.1518,-0.1545,-0.145,-0.1598,-0.1631,-0.1483,-0.1605,-0.1673,-0.1694,-0.1671,0,0,0,0,0,0,-0.1156,-0.1209,-0.1226,-0.1193,-0.1194,-0.1239,-0.1284,-0.1355,-0.1315,-0.1419,-0.1391,-0.1474,-0.1441,-0.1533,-0.1412,-0.1419,-0.1462,-0.1516,-0.1511,-0.1662,-0.1681,-0.1698,-0.1681,0,0,0,0,0]},{"header":{"parameterUnit":"m.s-1","parameterCategory":2,"la1":30.2991,"la2":30.254,"lo1":-89.0895,"lo2":-89.0444,"dy":0.0017,"dx":0.0017,"nx":28,"ny":28,"refTime":"2025-01-10T09:00:00:Z","depth":"4","parameterNumber":3,"parameterNumberName":"V-component_of_CURRENTS"},"data":[0,0,0,0,0,0,0,0,0,0,0,0,0,0,0,0,0,0,0,0,0,0,0,0,0,0,0,0,0,0,0,0,0,0,0,0,0,0,0,0,0,0,0,0,0,0,0,0,0,0,0,0,0,0,0,0,0,0,-0.0093,-0.0093,0,-0.0053,-0.0052,-0.0051,-0.0013,-0.0013,-0.0012,-0.0012,0.0085,0.0087,0.0089,0,0,0,0,0,0,0,0,0,0,0,0,0,-0.0104,-0.0104,-0.0093,-0.0093,-0.0093,-0.0053,-0.0052,-0.0051,-0.0013,-0.0013,-0.0012,-0.0012,0.0084,0.0087,0.009,0,0,0,0,0,0,0,0,0,0,0,0,0,-0.0083,-0.0104,-0.0093,-0.007,-0.0068,-0.0053,-0.0052,-0.0051,-0.0013,-0.0013,-0.0012,-0.0012,0.0083,0.0087,0.009,0.0102,0,0,0.0101,0.0102,0,0,0,0,0,0,0,0,-0.0085,-0.0083,-0.0074,-0.0072,-0.0069,-0.0039,-0.002,0.0002,-0.0013,-0.0032,-0.0012,-0.0012,0.0047,0.0054,0.0062,0.0106,0.0111,0.0101,0.0103,0.0104,0.0105,0,0,0,0,0,0,0,-0.0086,-0.0084,-0.0075,-0.0074,-0.0071,-0.005,-0.0047,-0.0016,0.0007,-0.003,-0.0028,-0.0026,0.0049,0.0059,0.0065,0.0112,0.0101,0.0104,0.0106,0.0107,0.0184,0.0184,0,0,0,0,0,0,-0.0097,-0.0086,-0.0077,-0.0074,-0.0078,-0.0051,-0.0047,-0.0048,0.0005,0.0013,-0.0027,-0.0025,0.0052,0.0061,0.0068,0.0087,0.0104,0.0108,0.011,0.0184,0.0184,0.0184,0,0,0,0,0,0,-0.0098,-0.0097,-0.0078,-0.008,-0.0077,-0.0052,-0.0052,-0.0047,-0.0039,0.0007,0.0016,-0.0024,0.0053,0.0063,0.0094,0.0092,0.0109,0.0112,0.0184,0.0184,0.0184,0.0125,0,0,0,0,0,0,-0.0098,-0.0097,-0.0101,-0.0081,-0.0077,-0.0077,-0.0053,-0.0047,-0.0039,-0.0036,0.0012,0.0022,0.0054,0.0088,0.0097,0.0097,0.0115,0.0184,0.0184,0.0184,0.0127,0.0123,0.0119,0,0,0,0,0,-0.0099,-0.011,-0.0101,-0.01,-0.0083,-0.0078,-0.0074,-0.0052,-0.004,-0.0042,-0.0006,0.002,0.0095,0.0091,0.0101,0.0102,0.0184,0.0184,0.0184,0.0128,0.0123,0.0119,0,0,0,0,0,0,-0.0114,-0.0107,-0.0096,-0.0104,-0.0094,-0.0072,-0.0073,-0.0058,-0.0032,-0.0027,0.002,0.0031,0.0056,0.0088,0.0082,0.0124,0.0144,0.0146,0.0098,0.0094,0.009,0.0077,0.0118,0,0,0,0,0,-0.012,-0.0129,-0.0114,-0.012,-0.0118,-0.0095,-0.009,-0.0078,-0.0054,-0.0043,-0.0009,0.0031,0.0064,0.0085,0.0116,0.014,0.0173,0.0148,0.0144,0.014,0.0137,0.0181,0.0181,0.0184,0.0184,0.0184,0,0,-0.0126,-0.0125,-0.0128,-0.0124,-0.0113,-0.0118,-0.0091,-0.009,-0.0087,-0.0035,-0.0019,0.0016,0.0066,0.009,0.0105,0.0117,0.0158,0.014,0.0137,0.0136,0.0181,0.018,0.018,0.0184,0.0184,0.0184,0,0,-0.0152,-0.0144,-0.0161,-0.0158,-0.0153,-0.0138,-0.0141,-0.0122,-0.0106,-0.0089,-0.0049,-0.0017,0.0031,0.0067,0.0092,0.0088,0.0133,0.0098,0.0074,0.0116,0.0116,0.0116,0.0159,0.0163,0.0101,0.01,0.01,0,-0.016,-0.018,-0.0165,-0.0181,-0.0182,-0.0151,-0.0167,-0.0147,-0.0119,-0.0106,-0.0092,-0.002,0.002,0.0059,0.0057,0.0079,0.011,0.0084,0.011,0.0111,0.0112,0.0156,0.0162,0.0098,0.0098,0.0098,0.0098,0,-0.02,-0.0213,-0.0224,-0.0233,-0.023,-0.024,-0.0215,-0.0204,-0.018,-0.0156,-0.012,-0.0065,-0.0022,-0.0003,0.0027,0.0058,0.0078,0.0095,0.0118,0.0108,0.0155,0.0163,0.0093,0.0095,0.0095,0.0096,0,0,-0.0228,-0.0249,-0.0254,-0.0267,-0.026,-0.0264,-0.0255,-0.0239,-0.0232,-0.0192,-0.0176,-0.0115,-0.0085,-0.0054,-0.0009,0.0031,0.0068,0.0062,0.0066,0.0097,0.0163,0.0145,0.0152,0.0088,0.0089,0.009,0.0192,0,-0.0265,-0.0312,-0.0306,-0.0338,-0.0358,-0.0327,-0.0322,-0.0299,-0.0267,-0.0241,-0.0175,-0.0144,-0.0103,-0.0083,-0.0038,0.004,0.0084,0.0039,0.0173,0.0177,0.0157,0.0158,0.0092,0.0197,0.0199,0.02,0.0201,0,-0.0308,-0.0336,-0.0382,-0.0396,-0.04,-0.041,-0.0397,-0.0387,-0.0335,-0.0308,-0.0261,-0.0208,-0.0141,-0.0108,0.002,-0.0012,0.0067,0.0131,0.0137,0.0145,0.0173,0.0211,0.0215,0.0214,0.0213,0.0212,0.0211,0,-0.035,-0.0385,-0.0426,-0.0434,-0.0444,-0.0453,-0.0449,-0.0414,-0.0403,-0.0351,-0.0334,-0.0249,-0.0205,-0.01,0.0029,0.0026,0.0173,0.0188,0.0252,0.0252,0.0264,0.0263,0.0281,0.028,0.028,0.028,0.028,0,-0.0394,-0.0426,-0.0454,-0.0479,-0.0519,-0.0503,-0.0523,-0.0502,-0.0467,-0.0454,-0.0376,-0.0338,-0.0202,-0.01,0.0018,0.0153,0.0168,0.0247,0.0275,0.0238,0.0232,0.027,0.0267,0.0284,0.0283,0.0282,0.0281,0,-0.0436,-0.0453,-0.0505,-0.0534,-0.0545,-0.0574,-0.058,-0.0584,-0.0547,-0.0525,-0.051,-0.0402,-0.0271,-0.0126,0.0052,0.0131,0.0268,0.0317,0.0265,0.0289,0.0324,0.0318,0.0391,0.0392,0.0392,0.0392,0.0392,0,-0.0459,-0.0494,-0.0555,-0.0587,-0.0606,-0.064,-0.0656,-0.0631,-0.0623,-0.0555,-0.0539,-0.0422,-0.0334,-0.0089,0.0052,0.0265,0.0295,0.0358,0.0338,0.0314,0.0335,0.0328,0.0321,0.0392,0.0392,0.0392,0.0392,0,-0.0506,-0.0534,-0.0577,-0.0645,-0.0683,-0.0713,-0.0728,-0.0726,-0.068,-0.0654,-0.0544,-0.0415,-0.0271,-0.0089,0.007,0.0225,0.0308,0.036,0.0361,0.0343,0.0316,0.0335,0.0328,0.0393,0.0393,0.0393,0.0393,0,-0.0536,-0.0581,-0.064,-0.069,-0.0741,-0.0762,-0.0767,-0.0732,-0.071,-0.062,-0.0585,-0.0416,-0.0317,-0.0108,0.0044,0.0182,0.0215,0.0254,0.0261,0.0262,0.0185,0.0129,0.0172,0,0,0,0,0,-0.0562,-0.0614,-0.0672,-0.0726,-0.0773,-0.0792,-0.0799,-0.0785,-0.0744,-0.0668,-0.0619,-0.0472,-0.0243,-0.014,-0.0003,0.0029,0.022,0.019,0.0262,0.0396,0.0395,0.0324,0,0,0,0,0,0,-0.0581,-0.0654,-0.0679,-0.0737,-0.0771,-0.081,-0.0813,-0.0784,-0.0723,-0.0666,-0.0535,-0.0457,-0.0229,-0.0321,-0.0006,0.0034,0.0095,0.0302,0.0305,0.0396,0.0395,0.0395,0.0322,0,0,0,0,0]}]]